Sisseton, SD

10:53 AM CDT on July 23, 2016 (GMT -0500)
Sisseton

Weather History for K8D3 - January, 2012

Change the Weather History Date:

Tuesday, January 31, 2012

  Actual Average Record
Temperature  
Mean Temperature 36 °F 14 °F  
Max Temperature 46 °F 24 °F 46 °F (1989)
Min Temperature 26 °F 4 °F -28 °F (1982)
Degree Days  
Heating Degree Days 29 51  
Month to date heating degree days 1312 1607  
Since 1 July heating degree days 4079 4946  
Cooling Degree Days 0 0  
Month to date cooling degree days 0 0  
Year to date cooling degree days 0 0  
Moisture  
Dew Point 30 °F    
Average Humidity 79    
Maximum Humidity 100    
Minimum Humidity 58    
Precipitation  
Precipitation 0.00 in 0.01 in 0.29 in (2011)
Month to date precipitation 0.46 0.43  
Year to date precipitation 0.46 0.43  
Snow  
Snow 0.00 in - - ()
Month to date snowfall 2.5  
Since 1 July snowfall 4.3  
Snow Depth 0.00 in    
Sea Level Pressure  
Sea Level Pressure 29.80 in    
Wind  
Wind Speed 10 mph (NW)    
Max Wind Speed 24 mph    
Max Gust Speed 30 mph    
T = Trace of Precipitation, MM = Missing Value Source: NWS Daily Summary

Daily Weather History Graph

Daily Weather History Graph

Search for Another Location

Airport or City:

Trip Planner

Search our weather history database for the weather conditions in past years. The results will help you decide how hot, cold, wet, or windy it might be!

Date:

Astronomy

Jan. 31, 2012 Rise Set
Actual Time 7:51 AM CST 5:32 PM CST
Civil Twilight 7:19 AM CST 6:03 PM CST
Nautical Twilight 6:43 AM CST 6:39 PM CST
Astronomical Twilight 6:08 AM CST 7:14 PM CST
Moon 11:20 AM CST (1/31) 1:41 AM CST (1/31)
Length of Visible Light 10h 44m
Length of Day
9h 41m
First Quarter, 55% of the Moon is Illuminated
Jan 31
First Quarter
Feb 7
Full
Feb 14
Last Quarter
Feb 21
New
Feb 29
First Quarter

Hourly Weather History & Observations

Time (CST) Temp. Windchill Dew Point Humidity Pressure Visibility Wind Dir Wind Speed Gust Speed Precip Events Conditions
12:56 AM 42.1 °F 33.9 °F 30.9 °F 65% 29.55 in - West 17.3 mph - N/A   Unknown
1:56 AM 41.0 °F 33.5 °F 30.0 °F 65% 29.55 in - WNW 13.8 mph - N/A   Unknown
2:56 AM 39.0 °F 34.8 °F 30.0 °F 70% 29.57 in - North 5.8 mph - N/A   Unknown
3:56 AM 39.0 °F 31.4 °F 30.0 °F 70% 29.59 in - NW 12.7 mph - N/A   Unknown
4:56 AM 37.9 °F 30.5 °F 30.0 °F 73% 29.62 in - NNW 11.5 mph - N/A   Unknown
5:56 AM 36.0 °F 28.5 °F 30.0 °F 79% 29.64 in - NW 10.4 mph - N/A   Unknown
6:56 AM 34.0 °F 27.2 °F 28.9 °F 82% 29.68 in - WNW 8.1 mph - N/A   Unknown
7:56 AM 35.1 °F 26.9 °F 30.0 °F 82% 29.70 in - NW 11.5 mph - N/A   Unknown
8:56 AM 37.0 °F 28.9 °F 32.0 °F 82% 29.73 in - NNW 12.7 mph - N/A   Unknown
9:56 AM 35.1 °F 23.8 °F 32.0 °F 89% 29.77 in - NNW 20.7 mph 27.6 mph N/A   Unknown
10:56 AM 33.1 °F 20.9 °F 30.0 °F 89% 29.80 in - NNW 21.9 mph 27.6 mph N/A   Unknown
11:56 AM 33.1 °F 21.2 °F 30.0 °F 89% 29.82 in - North 20.7 mph - N/A   Unknown
12:56 PM 33.1 °F 22.2 °F 30.0 °F 89% 29.83 in - North 17.3 mph - N/A   Unknown
1:56 PM 34.0 °F 23.4 °F 30.0 °F 85% 29.85 in - NNW 17.3 mph - N/A   Unknown
2:56 PM 34.0 °F 25.0 °F 30.0 °F 85% 29.87 in - NW 12.7 mph - N/A   Unknown
3:56 PM 34.0 °F 26.0 °F 30.0 °F 85% 29.89 in - NW 10.4 mph - N/A   Unknown
4:56 PM 34.0 °F 27.2 °F 30.9 °F 89% 29.92 in - NNW 8.1 mph - N/A   Unknown
5:56 PM 32.0 °F - 30.0 °F 92% 29.94 in - Calm Calm - N/A   Unknown
6:56 PM 30.9 °F - 30.0 °F 96% 29.96 in - Calm Calm - N/A   Unknown
7:56 PM 28.9 °F - 28.0 °F 96% 29.98 in - Calm Calm - N/A   Unknown
8:56 PM 27.0 °F 19.5 °F 26.1 °F 96% 29.98 in - SSE 6.9 mph - N/A   Unknown
9:56 PM 27.0 °F - 25.0 °F 92% 29.99 in - Calm Calm - N/A   Unknown
10:56 PM 26.1 °F 20.5 °F 25.0 °F 96% 30.00 in - SW 4.6 mph - N/A   Unknown
11:56 PM 35.1 °F 30.1 °F 30.9 °F 85% 30.00 in - West 5.8 mph - N/A   Unknown